Location: Strada George Coșbuc
(47.6577°N, 23.5639°E)
Time: 11:10:42
(UTC+03:00)

ISS - Pass Details

Date: 13 October 2017
Orbit: 401 x 408 km, 51.6° (Epoch: 22 October)

Event Time Altitude Azimuth Distance (km) Brightness Sun altitude
Rises 21:08:28 0° 280° (W) 2,326 1.4 -25.4°
Reaches altitude 10° 21:12:09 10° 238° (WSW) 1,462 -0.5 -26.0°
Maximum altitude 21:12:45 10° 227° (SW) 1,439 -0.7 -26.0°
Enters shadow 21:12:45 10° 227° (SW) 1,439 -0.7 -26.0°
